This is the latest recevied weather packets stored in our database for station/object KD2DXJ. If no packets are shown the sender has not sent any weather packets the latest 10 day(s).
| Time | Temp. | Humidity | Pressure | Rain* | Wind** | Luminosity | Snow |
|---|---|---|---|---|---|---|---|
| 1778017629 | 16.67° C | 67% | 1004.9 hPa | 0 mm | - | 28 W/m² | - |
| 1778017326 | 17.22° C | 68% | 1004.7 hPa | 0 mm | - | 36 W/m² | - |
| 1778017024 | 17.78° C | 69% | 1004.3 hPa | 0 mm | - | 49 W/m² | - |
| 1778016721 | 18.33° C | 70% | 1004.1 hPa | 0 mm | - | 84 W/m² | - |
| 1778016416 | 18.33° C | 70% | 1004 hPa | 0 mm | - | 69 W/m² | - |
| 1778016114 | 18.89° C | 69% | 1004 hPa | 0 mm | - | 113 W/m² | - |
| 1778015811 | 18.89° C | 68% | 1003.7 hPa | 0 mm | - | 114 W/m² | - |
| 1778015508 | 18.89° C | 67% | 1003.8 hPa | 0 mm | - | 127 W/m² | - |
| 1778015205 | 19.44° C | 67% | 1003.7 hPa | 0 mm | - | 160 W/m² | - |
| 1778014901 | 19.44° C | 65% | 1003.5 hPa | 0 mm | - | 144 W/m² | - |
| 1778014599 | 19.44° C | 65% | 1003.4 hPa | 0 mm | - | 114 W/m² | - |
| 1778014297 | 19.44° C | 64% | 1003.5 hPa | 0 mm | - | 153 W/m² | - |
| 1778013993 | 20° C | 64% | 1003.3 hPa | 0 mm | - | 151 W/m² | - |
| 1778013692 | 19.44° C | 64% | 1003 hPa | 0 mm | - | 159 W/m² | - |
| 1778013388 | 20° C | 62% | 1003 hPa | 0 mm | - | 122 W/m² | - |
| 1778013085 | 20° C | 63% | 1002.9 hPa | 0 mm | - | 246 W/m² | - |
| 1778012780 | 20° C | 63% | 1003.2 hPa | 0 mm | - | 191 W/m² | - |
| 1778012477 | 19.44° C | 63% | 1003 hPa | 0 mm | - | 150 W/m² | - |
| 1778012174 | 20° C | 64% | 1003.1 hPa | 0 mm | - | 94 W/m² | - |
| 1778011871 | 20° C | 63% | 1003.3 hPa | 0 mm | - | 67 W/m² | - |
| 1778011569 | 20° C | 63% | 1003 hPa | 0 mm | - | 81 W/m² | - |
| 1778011266 | 20° C | 64% | 1002.9 hPa | 0 mm | - | 116 W/m² | - |
| 1778010962 | 20° C | 63% | 1002.9 hPa | 0 mm | - | 183 W/m² | - |
| 1778010660 | 20° C | 64% | 1003 hPa | 0 mm | - | 154 W/m² | - |
| 1778010357 | 20° C | 64% | 1003 hPa | 0 mm | - | 176 W/m² | - |
* Rain latest hour (hover to see other rain measurements)
** Current wind speed in m/s (hover to see current wind gust speed)